Regional Weather Roundup
Issued by NWS Cleveland, OH

Home | Current Version | Previous Version | Text Only | Print | Product List | Glossary On
Versions: 1 2 3 4 5 6 7 8 9 10 11 12 13 14 15 16 17 18 19 20 21 22 23 24 25 26 27 28 29 30 31 32 33 34 35 36 37 38 39 40 41 42 43 44 45 46 47 48 49 50
000
ASUS41 KCLE 181602
RWRCLE
OHIO REGIONAL WEATHER ROUNDUP
NATIONAL WEATHER SERVICE CLEVELAND, OH
1200 PM EDT FRI APR 18 2014

NOTE: "FAIR" INDICATES FEW OR NO CLOUDS BELOW 12,000 FEET WITH NO
SIGNIFICANT WEATHER AND/OR OBSTRUCTIONS TO VISIBILITY.

OHZ001>008-015>018-024>027-034-035-043-044-181700-
   NORTHWEST OHIO

CITY           SKY/WX    TMP DP  RH WIND       PRES   REMARKS
DEFIANCE       CLOUDY    62  40  44 VRB7      30.28S
FINDLAY        SUNNY     63  40  42 NE3       30.28S
TOLEDO EXPRESS CLOUDY    59  40  49 W6        30.27S
TOLEDO EXEC    CLOUDY    60  40  47 W6        30.28F
LIMA           SUNNY     63  40  42 SE5       30.29S
$$

OHZ009>014-019>023-028>033-038-089-181700-
   NORTHEAST OHIO

CITY           SKY/WX    TMP DP  RH WIND       PRES   REMARKS
CLE-HOPKINS    CLOUDY    60  36  40 W7        30.30F
CLE-LAKEFRONT  CLOUDY    48  40  73 NW9       30.27F
CUY CO. ARPT   NOT AVBL
LORAIN-ELYRIA  CLOUDY    61  39  44 NE9       30.29S
ASHTABULA      PTSUNNY   57  32  38 SW6       30.28F
AKRON-CANTON   PTSUNNY   59  32  36 SW7       30.28F
WOOSTER        CLOUDY    60  35  39 W6        30.27F
MANSFIELD      PTSUNNY   61  36  39 CALM      30.28F
YOUNGSTOWN     CLOUDY    58  30  34 VRB3      30.28F
$$

OHZ042-051>053-060>062-070>072-077>081-181700-
  SOUTHWEST OHIO

CITY           SKY/WX    TMP DP  RH WIND       PRES   REMARKS
CINC-COVINGTON PTSUNNY   64  37  36 S3        30.30S
CINC-LUNKEN    PTSUNNY   61  42  49 CALM      30.31F
HAMILTON       PTSUNNY   66  40  38 CALM      30.31S
DAYTON         PTSUNNY   63  37  38 CALM      30.30S
WRIGHT-PAT AFB MOSUNNY   62  38  40 VRB2      30.29S
DAYTON GENERAL PTSUNNY   64  38  38 CALM      30.29S
WILMINGTON     PTSUNNY   63  37  38 SW3       30.30S
$$

OHZ036-037-039>041-045>050-054>059-063>069-073>076-082>088-181700-
  CENTRAL AND SOUTHEAST OHIO

CITY           SKY/WX    TMP DP  RH WIND       PRES   REMARKS
COLUMBUS       PTSUNNY   63  32  31 CALM      30.29F
OSU AIRPORT    PTSUNNY   63  35  35 VRB3      30.28F
BOLTON FIELD   SUNNY     63  39  42 CALM      30.29F
RICKENBACK AFB NOT AVBL
NEWARK         CLOUDY    62  35  36 SW3       30.28F
MARION         MOSUNNY   60  37  42 CALM      30.29S
LANCASTER      PTSUNNY   64  36  35 W5        30.29F
ZANESVILLE     CLOUDY    60  32  34 S5        30.29F
NEW PHILLY     CLOUDY    59  27  29 SW5       30.29F
$$



USA.gov is the U.S. government's official web portal to all federal, state and local government web resources and services.